"Pseudo-MPEC" for P10OljW

Created 2019 Jun 15 2:09:20 UT using Find_Orb

Click here for an explanation of pseudo-MPECs

 
 Astrometry: 
     P10OljW  C2015 05 2182#(av\ktfNT.VN8v-A8K'Gi3IWFXp\p\`xC6[h0!qddMmV$TwpYF51
     P10OljW  C2015 05 21$rIlAlyvNJX4V%7x59oTWwG3U!dKZBC)4?cZ9/hrwk((Z8uPlR'mF51
     P10OljW  C2015 05 21?\n)a(L+f:J)uBC^1o[Vw^8WP4av@Bi`$7CfsoK_dOC_qfC\[X82F51
     P10OljW  C2015 05 21p+CF?_v9'eS,VwLPFQi02owRl43%yu1Cv*(rDc^wInNuxuLB+,.UF51
     P10OljW  C2015 05 21*a!rNxNV0KR:-J8pbjtWo/mvQS(`.fGc8OD7WG(R;iT:?x4P]_d3F51
     P10OljW  C2015 05 227=pQ%6RhO'2f_fgA(1u6%n49D+v)odt2ZK7p#YE_F1AstrometryF51
     P10OljW  C2015 05 22D2x?+[*q/t`rkS!`=PLw!=mYvmB$/W5:8@tc)HI,@:_uTKS'C`tmF51
     P10OljW  C2015 05 22XprN%)csu)mredacted;83obsiVXe14jkAqiA1c5iYa=9j'2?dZWF51
     P10OljW  C2015 05 22Q)?$sP6^;J(,kug18ULcLe--QLLe)#o#(hSnC.Thb*UtB1)ntU3'F51
     P10OljW  C2015 06 23=eSiP7ly:NAGGGoD0#fr-vFP-Ox\_2cwqk'b7[V@WAJLe4O+,]'SF51
     P10OljW  C2015 06 23gi\eKuQhwN9B0!4k1.GhOK:n_Dyl[[yHJ[gOW?=.GW+12sVD'$2VF51
     P10OljW  C2019 05 02O'Ji%#[:^4.I)]ZUi$fN5xGlv(Jc^SDbBIeWc$k%f;bJu?YCEFXwF51
     P10OljW  C2019 05 02G$tON]g([O$^o\!sMZ_clickBBcraBj*A7=?^A94JP!R1+0IlJMtF51
     P10OljW  C2019 05 02*fpL*hhLYLHJigbeZP5d,Au7QxkDHrrR^hXhWFojM=np^V[-p(97F51
     P10OljW  C2019 05 02WPiUug#m_/+Mgt^hC(;`v1DSG`=DS/U)RdXsg%Xv0_=^D+'LAIf?F51
     P10OljW  C2019 05 02V3[*Yo94RExd?iPoy6g^4r?:Ma=9sbi0u8$0DIb.B\wr+QbrivE.F51
     P10OljW  C2019 05 02kro.ev\k8K!3%wb):KKvHC'S`TB6herey+'qTj\PLMBQ(Vob-2kGF51
     P10OljW  C2019 05 30]w_9YmS3ij2tq]OasYgVs\2BDsT5Ak+QywxRdgBvbn3kU`$w`ZpCF51
     P10OljW  C2019 05 30F8g@GW;8bYC;1AnucjL%^9pnNk:/;]/S%OT6jGR$jnifbdORjT7*F51
     P10OljW  C2019 05 30$_^RPx;k6KxoTS+yT]#D+ldG0mU!k9%Pw2ZO'%eRW4ad?`Wc=b/'F51
     P10OljW  C2019 06 010sudNP/A09BMH#R3V/H=tAWlR@/o)7Yfw+,yELGXZ6A\-;Xdb0*qF51
     P10OljW  C2019 06 01Ygb8CN5(Eu/Kt.NU.X5DLQo*;Wny)N@k@ctVl?+!DZ/LZZm-XmY/F51
     P10OljW  C2019 06 01=$Nf#W:wH4avjS;P.:0q@j5!7BY^VC!sG)9%`-bB=_fJTXnL)iqjF51
     P10OljW  C2019 06 03.;#mqHDQ8[kE7SgUlT%Gp8owA^n:(VU`#`K$bVCGb[!)jm]on.adF51
     P10OljW |C2019 06 06+)SC+/Rk32+8jnoak#q,p?D@3R'Q]dT6a9ym*f%5%J]Ne)Dh/NZ5807
     P10OljW |C2019 06 06LT$5T;bQa!+U_q4NP82$#;#E$sN8.F0Y\t6Q[1`t(OIYg[7EPnD.807
     P10OljW |C2019 06 06gr!uMG`,]XZfors9`KtqeoT:rg\SX']MKE:xexplanationFj%H*807
     P10OljW  C2019 06 07e+bEY!`^PWIEed=,Je'a8,`,^aPc/ZNnCNMx41NE[M1yD=yH\Z/NF51

Station data:
(807) Cerro Tololo Observatory, La Serena  (S30.169136 W70.805900)  Chile.
(F51) Pan-STARRS 1, Haleakala  (N20.707235 W156.255910)  US/Hawaii.
   Observers N. Primak, A. Schultz, S. Watters, J. Thiel, T. Goggia. Measurer
   PS1 Science Consortium. 1.8-m Ritchey-Chrétien + CCD.

Orbital elements:  P10OljW
   Perihelion 2018 Nov 16.281800 +/- 0.00845 TT =  6:45:47 (JD 2458438.781800)
Epoch 2019 Jun  7.0 TT = JDT 2458641.5   Earth MOID: 0.0941   AutoNEOCP
M  49.66097789 +/- 0.0020           (J2000 ecliptic)
n   0.24497542 +/- 1.49e-7          Peri.  356.27203 +/- 0.0015
a   2.52961463 +/- 1.03e-6          Node   133.27619 +/- 0.0031
e   0.5734279 +/- 1.06e-5           Incl.    7.56687 +/- 0.00034
P   4.02                   H 19.7   G  0.15   U  3.0  
q 1.07906288 +/- 2.63e-5    Q 3.98016637 +/- 2.82e-5
From 28 observations 2015 May 21-2019 June 7; mean residual 0".18
Residuals in arcseconds: 
150521 F51  .07+  .06+    150623 F51  .14-  .05+    190601 F51  .24-  .10+    
150521 F51  .01-  .58-    190502 F51  .02+  .13+    190601 F51  .07-  .02-    
150521 F51  .06+  .21+    190502 F51  .05-  .15+    190601 F51  .12-  .11+    
150521 F51  .10+  .04+    190502 F51  .09-  .03+    190603 F51  .38-  .07-    
150521 F51  .02+  .04+    190502 F51  .09+  .06-    190606 807  .01-  .18-    
150522 F51  .09+  .04-    190502 F51  .03-  .00     190606 807  .38+  .55-    
150522 F51  .06-  .27+    190502 F51  .01-  .09-    190606 807  .21+  .43-    
150522 F51  .21+  .08-    190530 F51  .14-  .00     190607 F51  .21+  .29+    
150522 F51  .10-  .08+    190530 F51  .08+  .13+    
150623 F51  .02-  .21+    190530 F51  .06+  .17+    

Ephemerides (geocentric):
Date (UTC) HH   RA              Dec         delta   r     elong  mag " sig PA
---- -- -- --  -------------   -----------  ------ ------ -----  --- ---- ---
2019 06 15 02  16 01 49.325   -09 05 51.73  1.4302 2.3864 154.3 23.1 .153 141
2019 06 15 03  16 01 47.078   -09 05 57.46  1.4307 2.3867 154.2 23.1 .154 140
2019 06 15 04  16 01 44.833   -09 06 03.20  1.4312 2.3869 154.2 23.1 .154 140
2019 06 15 05  16 01 42.592   -09 06 08.94  1.4317 2.3872 154.2 23.1 .155 140
2019 06 15 06  16 01 40.353   -09 06 14.71  1.4321 2.3875 154.1 23.1 .156 140
2019 06 15 07  16 01 38.118   -09 06 20.48  1.4326 2.3878 154.1 23.1 .156 140
2019 06 15 08  16 01 35.885   -09 06 26.26  1.4331 2.3880 154.0 23.1 .157 140
2019 06 15 09  16 01 33.656   -09 06 32.06  1.4335 2.3883 154.0 23.1 .158 140
2019 06 15 10  16 01 31.430   -09 06 37.87  1.4340 2.3886 153.9 23.1 .158 140
2019 06 15 11  16 01 29.207   -09 06 43.70  1.4345 2.3889 153.9 23.1 .159 140
2019 06 15 12  16 01 26.986   -09 06 49.53  1.4350 2.3891 153.9 23.1 .160 140
2019 06 15 13  16 01 24.769   -09 06 55.38  1.4354 2.3894 153.8 23.1 .160 140
2019 06 15 14  16 01 22.555   -09 07 01.24  1.4359 2.3897 153.8 23.1 .161 139
2019 06 15 15  16 01 20.344   -09 07 07.11  1.4364 2.3899 153.7 23.1 .162 139
2019 06 15 16  16 01 18.136   -09 07 12.99  1.4369 2.3902 153.7 23.1 .163 139
2019 06 15 17  16 01 15.931   -09 07 18.89  1.4373 2.3905 153.7 23.1 .163 139
2019 06 15 18  16 01 13.729   -09 07 24.79  1.4378 2.3908 153.6 23.1 .164 139
2019 06 15 19  16 01 11.530   -09 07 30.71  1.4383 2.3910 153.6 23.1 .165 139
2019 06 15 20  16 01 09.335   -09 07 36.65  1.4388 2.3913 153.5 23.1 .165 139
2019 06 15 21  16 01 07.142   -09 07 42.59  1.4393 2.3916 153.5 23.1 .166 139
2019 06 15 22  16 01 04.952   -09 07 48.55  1.4397 2.3918 153.4 23.1 .167 139
2019 06 15 23  16 01 02.766   -09 07 54.51  1.4402 2.3921 153.4 23.1 .168 139
2019 06 16 00  16 01 00.582   -09 08 00.49  1.4407 2.3924 153.4 23.1 .168 139
2019 06 16 01  16 00 58.402   -09 08 06.49  1.4412 2.3927 153.3 23.1 .169 138
2019 06 16 02  16 00 56.224   -09 08 12.49  1.4416 2.3929 153.3 23.1 .170 138
2019 06 16 03  16 00 54.050   -09 08 18.51  1.4421 2.3932 153.2 23.1 .170 138
2019 06 16 04  16 00 51.879   -09 08 24.54  1.4426 2.3935 153.2 23.1 .171 138
2019 06 16 05  16 00 49.710   -09 08 30.58  1.4431 2.3937 153.1 23.1 .172 138
2019 06 16 06  16 00 47.545   -09 08 36.63  1.4436 2.3940 153.1 23.1 .173 138
2019 06 16 07  16 00 45.383   -09 08 42.69  1.4441 2.3943 153.1 23.1 .173 138
2019 06 16 08  16 00 43.224   -09 08 48.77  1.4445 2.3946 153.0 23.1 .174 138
2019 06 16 09  16 00 41.068   -09 08 54.86  1.4450 2.3948 153.0 23.1 .175 138
2019 06 16 10  16 00 38.915   -09 09 00.96  1.4455 2.3951 152.9 23.1 .176 138
2019 06 16 11  16 00 36.765   -09 09 07.07  1.4460 2.3954 152.9 23.1 .176 138
2019 06 16 12  16 00 34.619   -09 09 13.20  1.4465 2.3957 152.9 23.1 .177 138
2019 06 16 13  16 00 32.475   -09 09 19.33  1.4469 2.3959 152.8 23.1 .178 137
2019 06 16 14  16 00 30.334   -09 09 25.48  1.4474 2.3962 152.8 23.1 .178 137
2019 06 16 15  16 00 28.197   -09 09 31.64  1.4479 2.3965 152.7 23.1 .179 137
2019 06 16 16  16 00 26.062   -09 09 37.81  1.4484 2.3967 152.7 23.1 .180 137
2019 06 16 17  16 00 23.931   -09 09 44.00  1.4489 2.3970 152.6 23.1 .181 137
2019 06 16 18  16 00 21.803   -09 09 50.19  1.4494 2.3973 152.6 23.1 .181 137
2019 06 16 19  16 00 19.677   -09 09 56.40  1.4499 2.3976 152.6 23.1 .182 137
2019 06 16 20  16 00 17.555   -09 10 02.62  1.4503 2.3978 152.5 23.1 .183 137
2019 06 16 21  16 00 15.436   -09 10 08.85  1.4508 2.3981 152.5 23.1 .184 137
2019 06 16 22  16 00 13.320   -09 10 15.09  1.4513 2.3984 152.4 23.1 .184 137
2019 06 16 23  16 00 11.208   -09 10 21.35  1.4518 2.3986 152.4 23.2 .185 137
2019 06 17 00  16 00 09.098   -09 10 27.62  1.4523 2.3989 152.3 23.2 .186 137
2019 06 17 01  16 00 06.991   -09 10 33.90  1.4528 2.3992 152.3 23.2 .187 137